Location: Unspecified
(0.0000°N, 0.0000°E)
Time: 22:23:09
(UTC+00:00)

Hubble Space Telescope - Pass Details

Date: 17 July 2019
Orbit: 536 x 540 km, 28.5° (Epoch: 22 July)

Event Time Altitude Azimuth Distance (km) Brightness Sun altitude
Exits shadow 05:34:01 - 233° (SW) 1,909 2.9 -7.5°
Reaches altitude 10° 05:34:21 10° 233° (SW) 1,783 2.8 -7.4°
Maximum altitude 05:38:27 68° 150° (SSE) 576 1.0 -6.5°
Drops below altitude 10° 05:42:32 10° 67° (ENE) 1,776 5.3 -5.5°
Sets 05:44:48 0° 64° (ENE) 2,664 7.1 -5.0°
